When you browse on this site, cookies collect data to enhance your experience and personalize the content and advertising you see.
Visit our Privacy Policy to learn more. By continuing to use the site, you agree to this use of cookies and data.
  • In Latvia
  • List of Countries
  • For 7 days
  • Water Temperature
  • Weather Map
  • Weather Widgets
  • user-avatar
    Login

    Hourly Weather Kaliszki

    Today, 25 February, Tuesday

    Time Temperature Precipitation Wind Pressure Humidity
    00:00 +1°C° 0.4 mm 4 mps 742 mmHg 87%
    01:00 0°C° 0.4 mm 5 mps 741 mmHg 92%
    02:00 +1°C° 1 mm 5 mps 740 mmHg 92%
    03:00 +1°C° 1 mm 5 mps 738 mmHg 92%
    04:00 +2°C° 1 mm 5 mps 737 mmHg 92%
    05:00 +3°C° 0.2 mm 5 mps 737 mmHg 92%
    06:00 +3°C° 0.2 mm 6 mps 737 mmHg 92%
    07:00 +4°C° 0.2 mm 6 mps 736 mmHg 92%
    08:00 +5°C° 0.2 mm 6 mps 736 mmHg 90%
    09:00 +6°C° 0.2 mm 7 mps 736 mmHg 88%
    10:00 +6°C° 0.2 mm 7 mps 735 mmHg 87%
    11:00 +8°C° 0.1 mm 7 mps 735 mmHg 85%
    12:00 +8°C° 0.1 mm 7 mps 735 mmHg 83%
    13:00 +8°C° 0.1 mm 7 mps 735 mmHg 81%
    14:00 +8°C° 0.1 mm 7 mps 734 mmHg 81%
    15:00 +8°C° 0.1 mm 6 mps 734 mmHg 80%
    16:00 +8°C° 0.1 mm 6 mps 733 mmHg 80%
    17:00 +8°C° 0.1 mm 6 mps 733 mmHg 82%
    18:00 +8°C° 0.1 mm 6 mps 733 mmHg 84%
    19:00 +7°C° 0.1 mm 6 mps 733 mmHg 86%
    20:00 +7°C° 0.8 mm 6 mps 732 mmHg 87%
    21:00 +5°C° 0.8 mm 6 mps 732 mmHg 88%
    22:00 +5°C° 0.8 mm 6 mps 732 mmHg 89%
    23:00 +5°C° 0.2 mm 5 mps 732 mmHg 87%

    Tomorrow, 26 February, Wednesday

    Time Temperature Precipitation Wind Pressure Humidity
    00:00 +5°C° 0.2 mm 4 mps 732 mmHg 85%
    01:00 +5°C° 0.2 mm 2 mps 732 mmHg 84%
    02:00 +4°C° 0 mm 3 mps 732 mmHg 85%
    03:00 +3°C° 0 mm 3 mps 731 mmHg 85%
    04:00 +3°C° 0 mm 3 mps 731 mmHg 86%
    05:00 +3°C° 0 mm 3 mps 731 mmHg 86%
    06:00 +2°C° 0 mm 3 mps 731 mmHg 86%
    07:00 +2°C° 0 mm 3 mps 731 mmHg 86%
    08:00 +3°C° 0 mm 3 mps 730 mmHg 81%
    09:00 +4°C° 0 mm 3 mps 730 mmHg 77%
    10:00 +5°C° 0 mm 3 mps 730 mmHg 72%
    11:00 +5°C° 0.1 mm 4 mps 730 mmHg 69%
    12:00 +6°C° 0.1 mm 4 mps 730 mmHg 67%
    13:00 +6°C° 0.1 mm 4 mps 730 mmHg 64%
    14:00 +5°C° 0.2 mm 5 mps 730 mmHg 67%
    15:00 +3°C° 0.2 mm 7 mps 730 mmHg 70%
    16:00 +1°C° 0.2 mm 8 mps 730 mmHg 73%
    17:00 +2°C° 0 mm 6 mps 730 mmHg 72%
    18:00 +1°C° 0 mm 5 mps 730 mmHg 71%
    19:00 +2°C° 0 mm 3 mps 731 mmHg 70%
    20:00 +1°C° 0 mm 3 mps 731 mmHg 71%
    21:00 0°C° 0 mm 4 mps 731 mmHg 71%
    22:00 0°C° 0 mm 4 mps 731 mmHg 72%
    23:00 0°C° 0 mm 5 mps 732 mmHg 77%

    Day after tomorrow, 27 February, Thursday

    Time Temperature Precipitation Wind Pressure Humidity
    00:00 -1°C° 0 mm 6 mps 732 mmHg 82%
    01:00 -2°C° 0 mm 6 mps 732 mmHg 87%
    02:00 -2°C° 0.1 mm 6 mps 733 mmHg 87%
    03:00 -2°C° 0.1 mm 6 mps 733 mmHg 86%
    04:00 -1°C° 0.1 mm 5 mps 733 mmHg 85%
    05:00 -2°C° 0.1 mm 6 mps 733 mmHg 83%
    06:00 -2°C° 0.1 mm 6 mps 734 mmHg 81%
    07:00 -3°C° 0.1 mm 7 mps 734 mmHg 79%
    08:00 -2°C° 0 mm 7 mps 735 mmHg 76%
    09:00 -2°C° 0 mm 7 mps 735 mmHg 72%
    10:00 -2°C° 0 mm 8 mps 736 mmHg 68%
    11:00 -1°C° 0 mm 7 mps 736 mmHg 67%
    12:00 0°C° 0 mm 7 mps 736 mmHg 67%
    13:00 0°C° 0 mm 7 mps 736 mmHg 66%
    14:00 0°C° 0.2 mm 7 mps 736 mmHg 70%
    15:00 +1°C° 0.2 mm 6 mps 736 mmHg 75%
    16:00 +1°C° 0.2 mm 6 mps 735 mmHg 79%
    17:00 0°C° 0 mm 5 mps 735 mmHg 79%
    18:00 -1°C° 0 mm 4 mps 735 mmHg 80%
    19:00 +1°C° 0 mm 2 mps 735 mmHg 80%
    20:00 +1°C° 0 mm 2 mps 735 mmHg 79%
    21:00 +1°C° 0 mm 2 mps 735 mmHg 78%
    22:00 +1°C° 0 mm 2 mps 735 mmHg 78%
    23:00 +1°C° 0 mm 2 mps 734 mmHg 78%

    28 February, Friday

    Time Temperature Precipitation Wind Pressure Humidity
    00:00 +1°C° 0 mm 2 mps 734 mmHg 78%
    01:00 +1°C° 0 mm 2 mps 734 mmHg 79%
    02:00 +2°C° 0 mm 1 mps 734 mmHg 81%
    03:00 +2°C° 0 mm 1 mps 734 mmHg 83%
    04:00 +2°C° 0 mm 1 mps 734 mmHg 85%
    05:00 +1°C° 0.3 mm 1 mps 734 mmHg 89%
    06:00 -1°C° 0.3 mm 2 mps 735 mmHg 93%
    07:00 -1°C° 0.3 mm 2 mps 735 mmHg 97%
    08:00 0°C° 0.1 mm 3 mps 736 mmHg 91%
    09:00 +1°C° 0.1 mm 3 mps 737 mmHg 85%
    10:00 +1°C° 0.1 mm 4 mps 737 mmHg 79%
    11:00 +1°C° 0.1 mm 4 mps 738 mmHg 73%
    12:00 +2°C° 0.1 mm 5 mps 738 mmHg 67%
    13:00 +3°C° 0.1 mm 6 mps 739 mmHg 61%
    14:00 +2°C° 0.1 mm 6 mps 739 mmHg 68%
    15:00 +1°C° 0.1 mm 6 mps 740 mmHg 75%
    16:00 -1°C° 0.1 mm 6 mps 740 mmHg 82%
    17:00 -1°C° 0 mm 6 mps 741 mmHg 79%
    18:00 0°C° 0 mm 5 mps 741 mmHg 75%
    19:00 0°C° 0 mm 5 mps 742 mmHg 71%
    20:00 -1°C° 0 mm 5 mps 742 mmHg 76%
    21:00 -1°C° 0 mm 4 mps 743 mmHg 82%
    22:00 -1°C° 0 mm 4 mps 743 mmHg 87%
    23:00 -1°C° 0 mm 4 mps 743 mmHg 89%

    29 February, Saturday

    Time Temperature Precipitation Wind Pressure Humidity
    00:00 -1°C° 0 mm 5 mps 743 mmHg 90%
    01:00 -1°C° 0 mm 5 mps 743 mmHg 92%
    02:00 -1°C° 0 mm 5 mps 743 mmHg 90%
    03:00 -2°C° 0 mm 6 mps 743 mmHg 87%
    04:00 -2°C° 0 mm 6 mps 742 mmHg 85%
    05:00 -2°C° 0 mm 6 mps 742 mmHg 86%
    06:00 -3°C° 0 mm 6 mps 742 mmHg 86%
    07:00 -2°C° 0 mm 5 mps 742 mmHg 87%
    08:00 -1°C° 0 mm 5 mps 742 mmHg 82%
    09:00 0°C° 0 mm 5 mps 742 mmHg 78%
    10:00 +1°C° 0 mm 5 mps 742 mmHg 73%
    11:00 +1°C° 0 mm 5 mps 741 mmHg 68%
    12:00 +3°C° 0 mm 4 mps 741 mmHg 63%
    13:00 +4°C° 0 mm 4 mps 741 mmHg 58%
    14:00 +4°C° 0 mm 3 mps 740 mmHg 57%
    15:00 +4°C° 0 mm 3 mps 739 mmHg 57%
    16:00 +4°C° 0 mm 3 mps 739 mmHg 56%
    17:00 +3°C° 0 mm 3 mps 738 mmHg 59%
    18:00 +3°C° 0 mm 4 mps 738 mmHg 62%
    19:00 +3°C° 0 mm 4 mps 737 mmHg 66%
    20:00 +1°C° 0.1 mm 4 mps 737 mmHg 73%
    21:00 +1°C° 0.1 mm 5 mps 736 mmHg 81%
    22:00 +1°C° 0.1 mm 5 mps 736 mmHg 89%
    23:00 +1°C° 0.4 mm 5 mps 736 mmHg 88%

    1 March, Sunday

    Time Temperature Precipitation Wind Pressure Humidity
    00:00 +2°C° 0.4 mm 5 mps 735 mmHg 87%
    01:00 +2°C° 0.4 mm 6 mps 735 mmHg 86%
    02:00 +2°C° 0.1 mm 6 mps 735 mmHg 84%
    03:00 +3°C° 0.1 mm 7 mps 735 mmHg 81%
    04:00 +3°C° 0.1 mm 7 mps 736 mmHg 79%
    05:00 +2°C° 0 mm 6 mps 736 mmHg 80%
    06:00 +2°C° 0 mm 5 mps 737 mmHg 81%
    07:00 +1°C° 0 mm 5 mps 738 mmHg 81%
    08:00 +2°C° 0 mm 5 mps 738 mmHg 77%
    09:00 +3°C° 0 mm 6 mps 738 mmHg 72%
    10:00 +3°C° 0 mm 6 mps 739 mmHg 67%
    11:00 +4°C° 0 mm 6 mps 739 mmHg 62%
    12:00 +5°C° 0 mm 6 mps 738 mmHg 58%
    13:00 +5°C° 0 mm 6 mps 738 mmHg 53%
    14:00 +5°C° 0.2 mm 6 mps 738 mmHg 53%
    15:00 +5°C° 0.2 mm 6 mps 738 mmHg 54%
    16:00 +4°C° 0.2 mm 6 mps 738 mmHg 55%
    17:00 +5°C° 0.1 mm 5 mps 739 mmHg 60%
    18:00 +4°C° 0.1 mm 4 mps 739 mmHg 64%
    19:00 +3°C° 0.1 mm 3 mps 739 mmHg 69%
    20:00 +2°C° 0 mm 3 mps 739 mmHg 71%
    21:00 +2°C° 0 mm 3 mps 740 mmHg 72%
    22:00 +1°C° 0 mm 3 mps 740 mmHg 74%
    23:00 +1°C° 0 mm 3 mps 740 mmHg 76%
    Show more